EW2067 Weather Reports


time (UTC)temp
F
wind
direction
speed
knots
gust
knots
rain 1hr
in
rain 24hr
in
rain mn
in
humidity
%
barometer
mb
20260505075926 59 140 0.0 0.0 0.00 0.00 0.00 52 1009.2
20260505075420 59 108 0.0 0.0 0.00 0.00 0.00 51 1009.2
20260505074914 59 128 0.0 0.0 0.00 0.00 0.00 51 1009.3
20260505074408 59 126 0.0 0.0 0.00 0.00 0.00 51 1009.3
20260505073902 59 91 0.0 0.0 0.00 0.00 0.00 51 1009.3
20260505073356 59 129 0.0 0.0 0.00 0.00 0.00 52 1009.3
20260505072850 59 147 0.0 0.0 0.00 0.00 0.00 52 1009.2
20260505072344 60 172 0.0 0.0 0.00 0.00 0.00 51 1009.2
20260505071838 60 175 0.0 0.0 0.00 0.00 0.00 51 1009.1
20260505071332 60 183 0.0 0.0 0.00 0.00 0.00 51 1009.1
20260505070826 60 179 0.0 0.0 0.00 0.00 0.00 51 1009.0
20260505070320 60 187 0.0 0.0 0.00 0.00 0.00 51 1009.0
20260505065814 61 213 0.0 0.0 0.00 0.00 0.00 51 1008.9
20260505065308 61 197 0.0 0.0 0.00 0.00 0.00 50 1008.9
20260505064802 61 183 0.0 0.0 0.00 0.00 0.00 50 1008.9
20260505064256 62 185 0.0 0.0 0.00 0.00 0.00 50 1008.9
20260505063750 61 191 0.0 0.0 0.00 0.00 0.00 50 1009.0
20260505063244 60 176 0.0 0.0 0.00 0.00 0.00 52 1009.0
20260505062738 59 190 0.0 0.0 0.00 0.00 0.00 53 1009.1
20260505062232 59 166 0.0 0.0 0.00 0.00 0.00 53 1009.2
20260505061726 59 151 0.0 0.0 0.00 0.00 0.00 53 1009.2
20260505061220 59 167 0.0 0.0 0.00 0.00 0.00 52 1009.2
20260505060714 59 141 0.0 0.0 0.00 0.00 0.00 51 1009.0
20260505060208 59 145 0.0 0.0 0.00 0.00 0.00 51 1009.0
20260505055702 59 149 0.0 0.0 0.00 0.00 0.00 50 1009.0
20260505055156 59 158 0.0 0.0 0.00 0.00 0.00 50 1008.9
20260505054650 58 171 0.0 0.0 0.00 0.00 0.00 50 1008.9
20260505054144 58 171 0.0 0.0 0.00 0.00 0.00 50 1008.8
20260505053638 58 171 0.0 0.0 0.00 0.00 0.00 50 1008.8
20260505053132 58 209 0.0 0.0 0.00 0.00 0.00 50 1008.9
20260505052626 58 242 0.0 0.0 0.00 0.00 0.00 50 1008.7
20260505052120 58 243 0.0 0.0 0.00 0.00 0.00 51 1008.6
20260505051614 58 165 0.0 0.0 0.00 0.00 0.00 48 1008.6
20260505051108 58 148 0.0 0.0 0.00 0.00 0.00 48 1008.4
20260505050602 58 155 0.0 0.0 0.00 0.00 0.00 48 1008.4
20260505041502 58 146 0.0 0.0 0.00 0.00 0.00 49 1008.3
20260505040956 58 151 0.0 0.0 0.00 0.00 0.00 49 1008.3
20260505040450 58 136 0.0 0.0 0.00 0.00 0.00 49 1008.2
20260505035944 58 134 0.0 0.0 0.00 0.00 0.00 49 1008.2
20260505035438 58 133 0.0 0.0 0.00 0.00 0.00 49 1008.1
20260505034932 59 133 0.0 0.0 0.00 0.00 0.00 48 1008.1
20260505034426 59 133 0.0 0.0 0.00 0.00 0.00 47 1008.1
20260505033920 59 130 0.0 0.0 0.00 0.00 0.00 47 1008.0
20260505033414 60 136 0.0 0.0 0.00 0.00 0.00 46 1007.9
20260505032908 60 133 0.0 0.0 0.00 0.00 0.00 46 1007.9
20260505032402 60 142 0.0 0.0 0.00 0.00 0.00 46 1007.8
20260505031856 60 136 0.0 0.0 0.00 0.00 0.00 46 1007.7
20260505031350 60 154 0.0 0.0 0.00 0.00 0.00 46 1007.6
20260505030844 60 151 0.0 0.0 0.00 0.00 0.00 45 1007.6
20260505030338 60 160 0.0 0.0 0.00 0.00 0.00 45 1007.6
20260505025832 60 136 0.0 0.0 0.00 0.00 0.00 46 1007.4
20260505025326 60 140 0.0 0.0 0.00 0.00 0.00 47 1007.4
20260505024820 60 144 0.0 0.0 0.00 0.00 0.00 47 1007.4
20260505024314 59 157 0.0 0.0 0.00 0.00 0.00 48 1007.3
20260505023808 60 170 0.0 0.0 0.00 0.00 0.00 48 1007.3
20260505023302 60 160 0.0 0.0 0.00 0.00 0.00 46 1007.2
20260505022756 60 164 0.0 0.0 0.00 0.00 0.00 47 1007.2
20260505022250 61 164 0.0 0.0 0.00 0.00 0.00 47 1007.2
20260505021744 60 164 0.0 0.0 0.00 0.00 0.00 48 1007.2
20260505021238 60 164 0.0 0.0 0.00 0.00 0.00 49 1007.1
20260505020732 60 165 0.0 0.0 0.00 0.00 0.00 50 1007.0
20260505020226 62 209 0.0 0.0 0.00 0.00 0.00 49 1007.0
20260505015720 63 305 0.0 0.0 0.00 0.00 0.00 44 1006.9
20260505015214 63 307 0.0 0.0 0.00 0.00 0.00 45 1006.9
20260505014708 63 307 0.0 0.0 0.00 0.00 0.00 45 1006.9
20260505014202 64 307 0.0 0.0 0.00 0.00 0.00 45 1006.9
20260505013656 65 307 0.0 0.0 0.00 0.00 0.00 41 1006.9
20260505013150 65 307 0.0 0.0 0.00 0.00 0.00 39 1006.9
20260505012644 66 307 0.0 0.0 0.00 0.00 0.00 38 1006.8
20260505012138 66 307 0.0 0.0 0.00 0.00 0.00 37 1006.8
20260505011632 66 307 0.0 0.0 0.00 0.00 0.00 38 1006.9
20260505011126 67 307 0.0 0.0 0.00 0.00 0.00 36 1007.0
20260505010620 67 307 0.0 0.0 0.00 0.00 0.00 33 1007.0
20260505010114 67 307 0.0 0.0 0.00 0.00 0.00 33 1007.0
20260505005608 67 307 0.0 0.0 0.00 0.00 0.00 35 1007.0
20260505005102 67 307 0.0 0.0 0.00 0.00 0.00 34 1007.1
20260505004556 67 307 0.0 0.0 0.00 0.00 0.00 34 1007.3
20260505004050 67 307 0.0 0.0 0.00 0.00 0.00 34 1007.3
20260505003544 67 303 0.0 0.0 0.00 0.00 0.00 33 1007.3
20260505003038 67 300 0.0 0.0 0.00 0.00 0.00 34 1007.5
20260505000956 67 319 0.0 0.0 0.00 0.00 0.00 35 1007.5
20260505000450 67 343 0.0 0.0 0.00 0.00 0.00 35 1007.5
20260504235944 67 335 0.0 0.0 0.00 0.00 0.00 33 1007.5
20260504235438 68 341 0.0 0.0 0.00 0.00 0.00 34 1007.4
20260504234932 68 336 0.0 0.0 0.00 0.00 0.00 33 1007.3
20260504234426 68 340 0.0 0.0 0.00 0.00 0.00 34 1007.2
20260504233920 68 341 0.0 0.0 0.00 0.00 0.00 34 1007.0
20260504233414 69 339 0.0 0.0 0.00 0.00 0.00 34 1007.0
20260504232908 70 343 0.0 0.0 0.00 0.00 0.00 33 1006.8
20260504232402 72 333 0.0 0.0 0.00 0.00 0.00 31 1006.8
20260504231344 76 296 0.0 0.0 0.00 0.00 0.00 21 1006.4
20260504230838 76 320 0.0 0.0 0.00 0.00 0.00 21 1006.3
20260504230332 77 263 0.0 0.0 0.00 0.00 0.00 22 1006.3
20260504225826 77 263 0.0 0.0 0.00 0.00 0.00 23 1006.4
20260504225320 77 263 0.0 0.0 0.00 0.00 0.00 21 1006.4
20260504224814 76 263 0.0 0.0 0.00 0.00 0.00 22 1006.4
20260504224308 76 263 0.0 0.0 0.00 0.00 0.00 20 1006.4
20260504223802 76 255 0.0 0.0 0.00 0.00 0.00 21 1006.4
20260504223256 76 178 0.0 0.0 0.00 0.00 0.00 23 1006.3
20260504222750 76 198 0.0 0.0 0.00 0.00 0.00 23 1006.3
20260504222244 76 201 0.0 0.0 0.00 0.00 0.00 21 1006.3
20260504221738 75 202 0.0 0.0 0.00 0.00 0.00 21 1006.4
20260504221232 75 202 0.0 0.0 0.00 0.00 0.00 21 1006.5
20260504220726 76 203 0.0 0.0 0.00 0.00 0.00 21 1006.5
20260504220220 76 323 0.0 0.0 0.00 0.00 0.00 20 1006.6
20260504215714 75 323 0.0 0.0 0.00 0.00 0.00 20 1006.7
20260504215208 75 257 0.0 0.0 0.00 0.00 0.00 21 1006.8
20260504214702 75 223 0.0 0.0 0.00 0.00 0.00 23 1006.9
20260504214156 75 223 0.0 0.0 0.00 0.00 0.00 21 1007.0
20260504213650 75 223 0.0 0.0 0.00 0.00 0.00 21 1007.0
20260504213144 75 161 0.0 0.0 0.00 0.00 0.00 26 1007.1
20260504212638 75 152 0.0 0.0 0.00 0.00 0.00 27 1007.2
20260504212132 74 152 0.0 0.0 0.00 0.00 0.00 26 1007.2
20260504211626 75 187 0.0 0.0 0.00 0.00 0.00 27 1007.3
20260504211120 75 69 0.0 0.0 0.00 0.00 0.00 25 1007.3
20260504210614 75 76 0.0 0.0 0.00 0.00 0.00 26 1007.3
20260504210108 75 76 0.0 0.0 0.00 0.00 0.00 25 1007.4
20260504205602 74 323 0.0 0.0 0.00 0.00 0.00 27 1007.5
20260504205056 74 320 0.0 0.0 0.00 0.00 0.00 26 1007.6
20260504204550 74 334 0.0 0.0 0.00 0.00 0.00 27 1007.6
20260504204044 74 333 0.0 0.0 0.00 0.00 0.00 27 1007.7
20260504203538 74 333 0.0 0.0 0.00 0.00 0.00 27 1007.7
20260504203032 75 344 0.0 0.0 0.00 0.00 0.00 30 1007.6
20260504202526 75 334 0.0 0.0 0.00 0.00 0.00 27 1007.7
20260504202020 75 289 0.0 0.0 0.00 0.00 0.00 26 1007.7
20260504201514 74 285 0.0 0.0 0.00 0.00 0.00 26 1007.8
20260504201008 74 284 0.0 0.0 0.00 0.00 0.00 26 1008.0
20260504200502 74 312 0.0 0.0 0.00 0.00 0.00 26 1008.0
20260504195956 74 314 0.0 0.0 0.00 0.00 0.00 28 1008.0
20260504195450 73 324 0.0 0.0 0.00 0.00 0.00 29 1008.1
20260504194944 73 326 0.0 0.0 0.00 0.00 0.00 27 1008.1
20260504194438 73 305 0.0 0.0 0.00 0.00 0.00 28 1008.1
20260504193932 72 204 0.0 0.0 0.00 0.00 0.00 30 1008.2
20260504193426 73 35 0.0 0.0 0.00 0.00 0.00 29 1008.2
20260504192920 73 330 0.0 0.0 0.00 0.00 0.00 28 1008.3
20260504192414 73 334 0.0 0.0 0.00 0.00 0.00 27 1008.4
20260504191908 72 345 0.0 0.0 0.00 0.00 0.00 30 1008.4
20260504191402 72 321 0.0 0.0 0.00 0.00 0.00 30 1008.5
20260504190856 72 324 0.0 0.0 0.00 0.00 0.00 29 1008.6
20260504190350 72 318 0.0 0.0 0.00 0.00 0.00 29 1008.6
20260504185844 71 324 0.0 0.0 0.00 0.00 0.00 30 1008.7
20260504185337 71 324 0.0 0.0 0.00 0.00 0.00 31 1008.9
20260504184832 71 319 0.0 0.0 0.00 0.00 0.00 32 1009.0
20260504184326 71 317 0.0 0.0 0.00 0.00 0.00 32 1009.0
20260504183819 70 315 0.0 0.0 0.00 0.00 0.00 33 1009.1
20260504183314 70 334 0.0 0.0 0.00 0.00 0.00 35 1009.2
20260504182808 70 354 0.0 0.0 0.00 0.00 0.00 33 1009.2
20260504182304 69 358 0.0 0.0 0.00 0.00 0.00 35 1009.3
20260504181756 69 341 0.0 0.0 0.00 0.00 0.00 35 1009.4
20260504181250 69 338 0.0 0.0 0.00 0.00 0.00 37 1009.5
20260504180743 68 339 0.0 0.0 0.00 0.00 0.00 36 1009.5
20260504180237 67 339 0.0 0.0 0.00 0.00 0.00 38 1009.7
20260504175732 67 339 0.0 0.0 0.00 0.00 0.00 38 1009.7
20260504175225 66 337 0.0 0.0 0.00 0.00 0.00 39 1009.8
20260504174720 66 337 0.0 0.0 0.00 0.00 0.00 38 1009.8
20260504174214 66 345 0.0 0.0 0.00 0.00 0.00 40 1009.9
20260504173708 66 343 0.0 0.0 0.00 0.00 0.00 41 1009.9
20260504173201 65 347 0.0 0.0 0.00 0.00 0.00 40 1009.9
20260504172655 65 319 0.0 0.0 0.00 0.00 0.00 39 1010.0
20260504172150 66 339 0.0 0.0 0.00 0.00 0.00 39 1010.1
20260504171643 65 339 0.0 0.0 0.00 0.00 0.00 40 1010.1
20260504171137 64 339 0.0 0.0 0.00 0.00 0.00 39 1010.2
20260504170632 64 338 0.0 0.0 0.00 0.00 0.00 41 1010.2
20260504170125 63 338 0.0 0.0 0.00 0.00 0.00 42 1010.2
20260504150913 54 249 0.0 0.0 0.00 0.00 0.00 50 1010.8
20260504150407 54 249 0.0 0.0 0.00 0.00 0.00 50 1010.8
20260504141307 48 298 0.0 0.0 0.00 0.00 0.00 38 1011.4
20260504140801 47 298 0.0 0.0 0.00 0.00 0.00 29 1011.5
20260504140255 46 298 0.0 0.0 0.00 0.00 0.00 29 1011.6
20260504130649 42 319 0.0 0.0 0.00 0.00 0.00 49 1012.1
20260504130143 42 320 0.0 0.0 0.00 0.00 0.00 49 1012.1
20260504110425 42 175 0.0 0.0 0.00 0.00 0.00 45 1011.9
20260504100313 46 133 0.0 0.0 0.00 0.00 0.00 55 1011.3
20260504081607 55 131 0.0 0.0 0.00 0.00 0.00 36 1010.8
20260504081101 55 130 0.0 0.0 0.00 0.00 0.00 36 1010.9
20260504080555 55 151 0.0 0.0 0.00 0.00 0.00 35 1010.9